Time,TemperatureF,DewpointF,PressureIn,WindDirection,WindDirectionDegrees,WindSpeedMPH,WindSpeedGustMPH,Humidity,HourlyPrecipIn,Conditions,Clouds,dailyrainin,SolarRadiationWatts/m^2,SoftwareType,DateUTC
2013-03-07 00:01:00,38.0,9.0,-100.00,South,186,3.0,12.0,29,0.00,,,0.00,0.000000,,2013-03-07 07:01:00,
2013-03-07 00:11:00,38.0,9.0,-100.00,South,186,3.0,12.0,29,0.00,,,0.00,0.000000,,2013-03-07 07:11:00,
2013-03-07 00:21:00,38.0,9.0,-100.00,South,186,3.0,12.0,29,0.00,,,0.00,0.000000,,2013-03-07 07:21:00,
2013-03-07 00:43:00,36.0,8.0,-100.00,SSW,211,3.0,6.0,31,0.00,,,0.00,0.000000,,2013-03-07 07:43:00,
2013-03-07 00:53:00,36.0,8.0,-100.00,SSW,211,3.0,6.0,31,0.00,,,0.00,0.000000,,2013-03-07 07:53:00,
2013-03-07 01:02:00,36.0,8.0,-100.00,SSW,211,3.0,6.0,31,0.00,,,0.00,0.000000,,2013-03-07 08:02:00,
2013-03-07 01:12:00,36.0,8.0,-100.00,SSW,211,3.0,6.0,31,0.00,,,0.00,0.000000,,2013-03-07 08:12:00,
2013-03-07 01:22:00,36.0,8.0,-100.00,SSW,211,3.0,6.0,31,0.00,,,0.00,0.000000,,2013-03-07 08:22:00,
2013-03-07 01:45:00,35.0,9.0,-100.00,North,358,3.0,7.0,33,0.00,,,0.00,0.000000,,2013-03-07 08:45:00,
2013-03-07 01:54:00,35.0,9.0,-100.00,North,358,3.0,7.0,33,0.00,,,0.00,0.000000,,2013-03-07 08:54:00,
2013-03-07 02:03:00,35.0,9.0,-100.00,North,358,3.0,7.0,33,0.00,,,0.00,0.000000,,2013-03-07 09:03:00,
2013-03-07 02:13:00,35.0,9.0,-100.00,North,358,3.0,7.0,33,0.00,,,0.00,0.000000,,2013-03-07 09:13:00,
2013-03-07 02:22:00,35.0,9.0,-100.00,North,358,3.0,7.0,33,0.00,,,0.00,0.000000,,2013-03-07 09:22:00,
2013-03-07 02:23:00,36.0,7.0,-100.00,SSE,156,2.0,6.0,29,0.00,,,0.00,0.000000,,2013-03-07 09:23:00,
2013-03-07 02:43:00,36.0,7.0,-100.00,SSE,156,2.0,6.0,29,0.00,,,0.00,0.000000,,2013-03-07 09:43:00,
2013-03-07 02:53:00,36.0,7.0,-100.00,SSE,156,2.0,6.0,29,0.00,,,0.00,0.000000,,2013-03-07 09:53:00,
2013-03-07 03:03:00,36.0,7.0,-100.00,SSE,156,2.0,6.0,29,0.00,,,0.00,0.000000,,2013-03-07 10:03:00,
2013-03-07 03:13:00,36.0,7.0,-100.00,SSE,156,2.0,6.0,29,0.00,,,0.00,0.000000,,2013-03-07 10:13:00,
2013-03-07 03:23:00,40.0,7.0,-100.00,SW,216,5.0,13.0,25,0.00,,,0.00,0.000000,,2013-03-07 10:23:00,
2013-03-07 03:43:00,40.0,7.0,-100.00,SW,216,5.0,13.0,25,0.00,,,0.00,0.000000,,2013-03-07 10:43:00,
2013-03-07 03:53:00,40.0,7.0,-100.00,SW,216,5.0,13.0,25,0.00,,,0.00,0.000000,,2013-03-07 10:53:00,
2013-03-07 04:03:00,40.0,7.0,-100.00,SW,216,5.0,13.0,25,0.00,,,0.00,0.000000,,2013-03-07 11:03:00,
2013-03-07 04:12:00,40.0,7.0,-100.00,SW,216,5.0,13.0,25,0.00,,,0.00,0.000000,,2013-03-07 11:12:00,
2013-03-07 04:44:00,36.0,8.0,-100.00,SSW,193,3.0,10.0,30,0.00,,,0.00,0.000000,,2013-03-07 11:44:00,
2013-03-07 04:54:00,36.0,8.0,-100.00,SSW,193,3.0,10.0,30,0.00,,,0.00,0.000000,,2013-03-07 11:54:00,
2013-03-07 05:03:00,36.0,8.0,-100.00,SSW,193,3.0,10.0,30,0.00,,,0.00,0.000000,,2013-03-07 12:03:00,
2013-03-07 05:12:00,36.0,8.0,-100.00,SSW,193,3.0,10.0,30,0.00,,,0.00,0.000000,,2013-03-07 12:12:00,
2013-03-07 05:22:00,36.0,8.0,-100.00,SSW,193,3.0,10.0,30,0.00,,,0.00,0.000000,,2013-03-07 12:22:00,
2013-03-07 05:43:00,30.0,10.0,-100.00,WSW,249,2.0,9.0,43,0.00,,,0.00,0.000000,,2013-03-07 12:43:00,
2013-03-07 05:53:00,30.0,10.0,-100.00,WSW,249,2.0,9.0,43,0.00,,,0.00,0.000000,,2013-03-07 12:53:00,
2013-03-07 06:02:00,30.0,10.0,-100.00,WSW,249,2.0,9.0,43,0.00,,,0.00,0.000000,,2013-03-07 13:02:00,
2013-03-07 06:12:00,30.0,10.0,-100.00,WSW,249,2.0,9.0,43,0.00,,,0.00,0.000000,,2013-03-07 13:12:00,
2013-03-07 06:22:00,30.0,10.0,-100.00,WSW,249,2.0,9.0,43,0.00,,,0.00,0.000000,,2013-03-07 13:22:00,
2013-03-07 06:42:00,28.0,11.0,-100.00,WNW,289,3.0,5.0,48,0.00,,,0.00,0.000000,,2013-03-07 13:42:00,
2013-03-07 06:53:00,28.0,11.0,-100.00,WNW,289,3.0,5.0,48,0.00,,,0.00,0.000000,,2013-03-07 13:53:00,
2013-03-07 07:02:00,28.0,11.0,-100.00,WNW,289,3.0,5.0,48,0.00,,,0.00,0.000000,,2013-03-07 14:02:00,
2013-03-07 07:12:00,28.0,11.0,-100.00,WNW,289,3.0,5.0,48,0.00,,,0.00,0.000000,,2013-03-07 14:12:00,
2013-03-07 07:22:00,28.0,11.0,-100.00,WNW,289,3.0,5.0,48,0.00,,,0.00,0.000000,,2013-03-07 14:22:00,
2013-03-07 07:43:00,37.0,13.0,-100.00,North,354,2.0,3.0,37,0.00,,,0.00,120.000000,,2013-03-07 14:43:00,
2013-03-07 07:54:00,37.0,13.0,-100.00,North,354,2.0,3.0,37,0.00,,,0.00,120.000000,,2013-03-07 14:54:00,
2013-03-07 08:03:00,37.0,13.0,-100.00,North,354,2.0,3.0,37,0.00,,,0.00,120.000000,,2013-03-07 15:03:00,
2013-03-07 08:12:00,37.0,13.0,-100.00,North,354,2.0,3.0,37,0.00,,,0.00,120.000000,,2013-03-07 15:12:00,
2013-03-07 08:22:00,37.0,13.0,-100.00,North,354,2.0,3.0,37,0.00,,,0.00,120.000000,,2013-03-07 15:22:00,
2013-03-07 08:23:00,41.0,13.0,-100.00,ESE,113,2.0,4.0,31,0.00,,,-99.99,418.000000,,2013-03-07 15:23:00,
2013-03-07 08:43:00,41.0,13.0,-100.00,ESE,113,2.0,4.0,31,0.00,,,-99.99,418.000000,,2013-03-07 15:43:00,
2013-03-07 08:53:00,41.0,13.0,-100.00,ESE,113,2.0,4.0,31,0.00,,,-99.99,418.000000,,2013-03-07 15:53:00,
2013-03-07 09:02:00,41.0,13.0,-100.00,ESE,113,2.0,4.0,31,0.00,,,-99.99,418.000000,,2013-03-07 16:02:00,
2013-03-07 09:12:00,41.0,13.0,-100.00,ESE,113,2.0,4.0,31,0.00,,,-99.99,418.000000,,2013-03-07 16:12:00,
2013-03-07 09:43:00,42.0,10.0,-100.00,ESE,107,2.0,4.0,27,0.00,,,0.00,632.000000,,2013-03-07 16:43:00,
2013-03-07 09:53:00,42.0,10.0,-100.00,ESE,107,2.0,4.0,27,0.00,,,0.00,632.000000,,2013-03-07 16:53:00,
2013-03-07 10:02:00,42.0,10.0,-100.00,ESE,107,2.0,4.0,27,0.00,,,0.00,632.000000,,2013-03-07 17:02:00,
2013-03-07 10:12:00,42.0,10.0,-100.00,ESE,107,2.0,4.0,27,0.00,,,0.00,632.000000,,2013-03-07 17:12:00,
2013-03-07 10:22:00,42.0,10.0,-100.00,ESE,107,2.0,4.0,27,0.00,,,0.00,632.000000,,2013-03-07 17:22:00,
2013-03-07 10:54:00,46.0,12.0,-100.00,SE,130,2.0,4.0,25,0.00,,,0.00,694.000000,,2013-03-07 17:54:00,
2013-03-07 11:03:00,46.0,12.0,-100.00,SE,130,2.0,4.0,25,0.00,,,0.00,694.000000,,2013-03-07 18:03:00,
2013-03-07 11:12:00,46.0,12.0,-100.00,SE,130,2.0,4.0,25,0.00,,,0.00,694.000000,,2013-03-07 18:12:00,
2013-03-07 11:22:00,46.0,12.0,-100.00,SE,130,2.0,4.0,25,0.00,,,0.00,694.000000,,2013-03-07 18:22:00,
2013-03-07 11:23:00,51.0,9.0,-100.00,ENE,60,3.0,6.0,18,0.00,,,-99.99,987.000000,,2013-03-07 18:23:00,
2013-03-07 11:43:00,51.0,9.0,-100.00,ENE,60,3.0,6.0,18,0.00,,,-99.99,987.000000,,2013-03-07 18:43:00,
2013-03-07 11:53:00,51.0,9.0,-100.00,ENE,60,3.0,6.0,18,0.00,,,-99.99,987.000000,,2013-03-07 18:53:00,
2013-03-07 12:03:00,51.0,9.0,-100.00,ENE,60,3.0,6.0,18,0.00,,,-99.99,987.000000,,2013-03-07 19:03:00,
2013-03-07 12:12:00,51.0,9.0,-100.00,ENE,60,3.0,6.0,18,0.00,,,-99.99,987.000000,,2013-03-07 19:12:00,
2013-03-07 12:44:00,53.0,0.0,-100.00,South,191,5.0,10.0,11,0.00,,,0.00,1016.000000,,2013-03-07 19:44:00,
2013-03-07 12:53:00,53.0,0.0,-100.00,South,191,5.0,10.0,11,0.00,,,0.00,1016.000000,,2013-03-07 19:53:00,
2013-03-07 13:02:00,53.0,0.0,-100.00,South,191,5.0,10.0,11,0.00,,,0.00,1016.000000,,2013-03-07 20:02:00,
2013-03-07 13:13:00,53.0,0.0,-100.00,South,191,5.0,10.0,11,0.00,,,0.00,1016.000000,,2013-03-07 20:13:00,
2013-03-07 13:22:00,53.0,0.0,-100.00,South,191,5.0,10.0,11,0.00,,,0.00,1016.000000,,2013-03-07 20:22:00,
2013-03-07 13:43:00,52.0,-1.0,-100.00,South,190,6.0,13.0,11,0.00,,,0.00,977.000000,,2013-03-07 20:43:00,
2013-03-07 13:54:00,52.0,-1.0,-100.00,South,190,6.0,13.0,11,0.00,,,0.00,977.000000,,2013-03-07 20:54:00,
2013-03-07 14:02:00,52.0,-1.0,-100.00,South,190,6.0,13.0,11,0.00,,,0.00,977.000000,,2013-03-07 21:02:00,
2013-03-07 14:12:00,52.0,-1.0,-100.00,South,190,6.0,13.0,11,0.00,,,0.00,977.000000,,2013-03-07 21:12:00,
2013-03-07 14:22:00,52.0,-1.0,-100.00,South,190,6.0,13.0,11,0.00,,,0.00,977.000000,,2013-03-07 21:22:00,
2013-03-07 14:43:00,53.0,-2.0,-100.00,South,190,4.0,9.0,10,0.00,,,0.00,851.000000,,2013-03-07 21:43:00,
2013-03-07 14:53:00,53.0,-2.0,-100.00,South,190,4.0,9.0,10,0.00,,,0.00,851.000000,,2013-03-07 21:53:00,
2013-03-07 15:02:00,53.0,-2.0,-100.00,South,190,4.0,9.0,10,0.00,,,0.00,851.000000,,2013-03-07 22:02:00,
2013-03-07 15:12:00,53.0,-2.0,-100.00,South,190,4.0,9.0,10,0.00,,,0.00,851.000000,,2013-03-07 22:12:00,
2013-03-07 15:22:00,53.0,-2.0,-100.00,South,190,4.0,9.0,10,0.00,,,0.00,851.000000,,2013-03-07 22:22:00,
2013-03-07 15:43:00,53.0,-4.0,-100.00,SSW,193,3.0,10.0,9,0.00,,,0.00,665.000000,,2013-03-07 22:43:00,
2013-03-07 15:54:00,53.0,-4.0,-100.00,SSW,193,3.0,10.0,9,0.00,,,0.00,665.000000,,2013-03-07 22:54:00,
2013-03-07 16:03:00,53.0,-4.0,-100.00,SSW,193,3.0,10.0,9,0.00,,,0.00,665.000000,,2013-03-07 23:03:00,
2013-03-07 16:13:00,53.0,-4.0,-100.00,SSW,193,3.0,10.0,9,0.00,,,0.00,665.000000,,2013-03-07 23:13:00,
2013-03-07 16:22:00,53.0,-4.0,-100.00,SSW,193,3.0,10.0,9,0.00,,,0.00,665.000000,,2013-03-07 23:22:00,
2013-03-07 16:23:00,53.0,-2.0,-100.00,SSW,195,2.0,7.0,10,0.00,,,0.00,432.000000,,2013-03-07 23:23:00,
2013-03-07 16:44:00,53.0,-2.0,-100.00,SSW,195,2.0,7.0,10,0.00,,,0.00,432.000000,,2013-03-07 23:44:00,
2013-03-07 16:54:00,53.0,-2.0,-100.00,SSW,195,2.0,7.0,10,0.00,,,0.00,432.000000,,2013-03-07 23:54:00,
2013-03-07 17:04:00,53.0,-2.0,-100.00,SSW,195,2.0,7.0,10,0.00,,,0.00,432.000000,,2013-03-08 00:04:00,
2013-03-07 17:13:00,53.0,-2.0,-100.00,SSW,195,2.0,7.0,10,0.00,,,0.00,432.000000,,2013-03-08 00:13:00,
2013-03-07 17:44:00,43.0,4.0,-100.00,WSW,242,2.0,6.0,19,0.00,,,0.00,66.000000,,2013-03-08 00:44:00,
2013-03-07 17:54:00,43.0,4.0,-100.00,WSW,242,2.0,6.0,19,0.00,,,0.00,66.000000,,2013-03-08 00:54:00,
2013-03-07 18:02:00,43.0,4.0,-100.00,WSW,242,2.0,6.0,19,0.00,,,0.00,66.000000,,2013-03-08 01:02:00,
2013-03-07 18:11:00,43.0,4.0,-100.00,WSW,242,2.0,6.0,19,0.00,,,0.00,66.000000,,2013-03-08 01:11:00,
2013-03-07 18:21:00,43.0,4.0,-100.00,WSW,242,2.0,6.0,19,0.00,,,0.00,66.000000,,2013-03-08 01:21:00,
2013-03-07 18:42:00,37.0,7.0,-100.00,West,277,3.0,4.0,28,0.00,,,0.00,12.000000,,2013-03-08 01:42:00,
2013-03-07 18:52:00,37.0,7.0,-100.00,West,277,3.0,4.0,28,0.00,,,0.00,12.000000,,2013-03-08 01:52:00,
2013-03-07 19:01:00,37.0,7.0,-100.00,West,277,3.0,4.0,28,0.00,,,0.00,12.000000,,2013-03-08 02:01:00,
2013-03-07 19:11:00,37.0,7.0,-100.00,West,277,3.0,4.0,28,0.00,,,0.00,12.000000,,2013-03-08 02:11:00,
2013-03-07 19:21:00,37.0,7.0,-100.00,West,277,3.0,4.0,28,0.00,,,0.00,12.000000,,2013-03-08 02:21:00,
2013-03-07 19:42:00,36.0,6.0,-100.00,West,267,3.0,4.0,28,0.00,,,0.00,0.000000,,2013-03-08 02:42:00,
2013-03-07 19:53:00,36.0,6.0,-100.00,West,267,3.0,4.0,28,0.00,,,0.00,0.000000,,2013-03-08 02:53:00,
2013-03-07 20:02:00,36.0,6.0,-100.00,West,267,3.0,4.0,28,0.00,,,0.00,0.000000,,2013-03-08 03:02:00,
2013-03-07 20:12:00,36.0,6.0,-100.00,West,267,3.0,4.0,28,0.00,,,0.00,0.000000,,2013-03-08 03:12:00,
2013-03-07 20:22:00,36.0,6.0,-100.00,West,267,3.0,4.0,28,0.00,,,0.00,0.000000,,2013-03-08 03:22:00,
2013-03-07 20:43:00,35.0,7.0,-100.00,WNW,284,1.0,5.0,30,0.00,,,0.00,0.000000,,2013-03-08 03:43:00,
2013-03-07 20:53:00,35.0,7.0,-100.00,WNW,284,1.0,5.0,30,0.00,,,0.00,0.000000,,2013-03-08 03:53:00,
2013-03-07 21:01:00,35.0,7.0,-100.00,WNW,284,1.0,5.0,30,0.00,,,0.00,0.000000,,2013-03-08 04:01:00,
2013-03-07 21:11:00,35.0,7.0,-100.00,WNW,284,1.0,5.0,30,0.00,,,0.00,0.000000,,2013-03-08 04:11:00,
2013-03-07 21:21:00,35.0,7.0,-100.00,WNW,284,1.0,5.0,30,0.00,,,0.00,0.000000,,2013-03-08 04:21:00,
2013-03-07 21:42:00,34.0,7.0,-100.00,West,266,2.0,5.0,31,0.00,,,0.00,0.000000,,2013-03-08 04:42:00,
2013-03-07 21:52:00,34.0,7.0,-100.00,West,266,2.0,5.0,31,0.00,,,0.00,0.000000,,2013-03-08 04:52:00,
2013-03-07 22:02:00,34.0,7.0,-100.00,West,266,2.0,5.0,31,0.00,,,0.00,0.000000,,2013-03-08 05:02:00,
2013-03-07 22:12:00,34.0,7.0,-100.00,West,266,2.0,5.0,31,0.00,,,0.00,0.000000,,2013-03-08 05:12:00,
2013-03-07 22:22:00,34.0,7.0,-100.00,West,266,2.0,5.0,31,0.00,,,0.00,0.000000,,2013-03-08 05:22:00,
2013-03-07 22:42:00,31.0,11.0,-100.00,WNW,286,2.0,5.0,42,0.00,,,0.00,0.000000,,2013-03-08 05:42:00,
2013-03-07 22:52:00,31.0,11.0,-100.00,WNW,286,2.0,5.0,42,0.00,,,0.00,0.000000,,2013-03-08 05:52:00,
2013-03-07 23:01:00,31.0,11.0,-100.00,WNW,286,2.0,5.0,42,0.00,,,0.00,0.000000,,2013-03-08 06:01:00,
2013-03-07 23:11:00,31.0,11.0,-100.00,WNW,286,2.0,5.0,42,0.00,,,0.00,0.000000,,2013-03-08 06:11:00,
2013-03-07 23:21:00,31.0,11.0,-100.00,WNW,286,2.0,5.0,42,0.00,,,0.00,0.000000,,2013-03-08 06:21:00,
2013-03-07 23:42:00,32.0,10.0,-100.00,West,272,2.0,3.0,39,0.00,,,0.00,0.000000,,2013-03-08 06:42:00,
2013-03-07 23:52:00,32.0,10.0,-100.00,West,272,2.0,3.0,39,0.00,,,0.00,0.000000,,2013-03-08 06:52:00,